This is the latest recevied weather packets stored in our database for station/object DG1ROH. If no packets are shown the sender has not sent any weather packets the latest 10 day(s).
| Time | Temp. | Humidity | Pressure | Rain* | Wind** | Luminosity | Snow |
|---|---|---|---|---|---|---|---|
| 1777199827 | 12.22° C | 37% | 1024.4 hPa | 0 mm | - | 724 W/m² | - |
| 1777199707 | 12.22° C | 40% | 1024.4 hPa | 0 mm | - | 724 W/m² | - |
| 1777199587 | 12.22° C | 36% | 1024.4 hPa | 0 mm | - | 721 W/m² | - |
| 1777199467 | 12.78° C | 37% | 1024.4 hPa | 0 mm | - | 722 W/m² | - |
| 1777199347 | 12.78° C | 39% | 1024.4 hPa | 0 mm | - | 721 W/m² | - |
| 1777199227 | 12.78° C | 37% | 1024.4 hPa | 0 mm | - | 717 W/m² | - |
| 1777199107 | 12.78° C | 36% | 1024.4 hPa | 0 mm | - | 719 W/m² | - |
| 1777198987 | 12.78° C | 39% | 1024.3 hPa | 0 mm | - | 719 W/m² | - |
| 1777198867 | 12.78° C | 40% | 1024.3 hPa | 0 mm | - | 715 W/m² | - |
| 1777198747 | 12.78° C | 38% | 1024.2 hPa | 0 mm | - | 715 W/m² | - |
| 1777198627 | 12.78° C | 37% | 1024.2 hPa | 0 mm | - | 714 W/m² | - |
| 1777198505 | 12.78° C | 42% | 1024.2 hPa | 0 mm | - | 712 W/m² | - |
| 1777198385 | 12.22° C | 40% | 1024.2 hPa | 0 mm | - | 712 W/m² | - |
| 1777198266 | 12.22° C | 42% | 1024.1 hPa | 0 mm | - | 710 W/m² | - |
| 1777198145 | 11.67° C | 38% | 1024.2 hPa | 0 mm | - | 708 W/m² | - |
| 1777198025 | 12.22° C | 37% | 1024.2 hPa | 0 mm | - | 707 W/m² | - |
| 1777197905 | 12.78° C | 37% | 1024.1 hPa | 0 mm | - | 708 W/m² | - |
| 1777197786 | 13.33° C | 43% | 1024.2 hPa | 0 mm | - | 707 W/m² | - |
| 1777197664 | 12.78° C | 42% | 1024.1 hPa | 0 mm | - | 707 W/m² | - |
| 1777197546 | 12.22° C | 44% | 1024.1 hPa | 0 mm | - | 705 W/m² | - |
| 1777197426 | 11.67° C | 41% | 1024.1 hPa | 0 mm | - | 701 W/m² | - |
| 1777197305 | 11.67° C | 39% | 1024 hPa | 0 mm | - | 700 W/m² | - |
| 1777197185 | 11.67° C | 38% | 1024.1 hPa | 0 mm | - | 707 W/m² | - |
| 1777197065 | 11.67° C | 42% | 1024.2 hPa | 0 mm | - | 712 W/m² | - |
| 1777196944 | 11.67° C | 45% | 1024.3 hPa | 0 mm | - | 705 W/m² | - |
* Rain latest hour (hover to see other rain measurements)
** Current wind speed in m/s (hover to see current wind gust speed)